GFSWCAN_prec_cloud_021.txt.gz
Cloud_Cover
35 5 5 5 1 5 6 2 0 0 5 19 5 0 0 12 0 0 0 0 0 0 2 2 5 5 1 2 5 4 16 74 81 99 100 100 84 65 17 97 100 78 100 100 100 100 100 94 100 31 5 0 0 0
5 5 4 5 5 5 15 4 0 0 5 88 4 4 0 0 0 0 0 0 0 0 0 0 0 0 4 0 0 3 16 5 5 16 77 100 100 84 45 100 100 100 66 71 100 100 100 100 100 100 53 5 1 0
5 5 5 5 5 5 5 4 5 0 2 94 98 94 0 0 0 6 0 0 0 0 0 0 0 0 0 0 0 0 0 2 5 5 5 36 13 100 98 100 98 100 62 100 59 68 23 100 100 100 100 70 5 2
5 5 4 4 5 5 5 5 8 5 0 18 94 44 4 0 0 4 7 0 0 0 0 19 0 0 0 0 0 0 0 0 3 5 5 5 46 57 79 100 16 96 92 95 23 71 49 59 41 100 100 100 91 6
5 5 5 5 5 5 5 6 4 1 1 2 100 88 5 4 0 18 14 0 0 4 0 6 0 0 0 0 0 0 0 0 0 3 0 5 5 72 59 34 93 98 95 83 94 97 98 98 100 42 5 62 99 98
3 5 5 5 5 5 5 5 5 4 0 4 100 100 57 5 1 28 7 4 1 0 0 28 10 0 0 0 0 0 0 0 0 1 5 7 72 43 88 98 58 86 98 5 91 25 48 6 6 5 5 6 15 69
5 5 5 5 5 5 5 5 5 5 0 5 100 100 99 7 6 60 72 68 1 2 0 12 22 4 5 0 4 4 0 2 1 3 5 5 54 12 5 48 42 66 32 20 5 5 21 99 92 12 9 10 20 16
5 19 39 36 8 5 6 5 5 4 0 5 100 100 100 39 7 35 49 4 30 10 0 45 99 46 1 24 48 5 5 4 5 5 5 5 18 29 14 5 93 74 97 34 3 11 5 75 8 52 27 98 100 88
99 100 100 100 100 11 5 5 5 4 0 32 100 100 100 93 85 100 6 0 23 63 25 3 100 76 13 58 75 96 91 93 19 41 10 48 86 35 80 11 5 25 75 39 24 76 0 20 24 9 0 92 97 48
100 100 100 100 100 36 32 5 5 1 4 88 100 100 100 100 30 5 16 100 95 13 5 4 86 99 40 99 100 95 100 100 44 64 99 100 100 64 5 59 51 85 60 99 84 7 11 80 27 5 6 65 100 77
100 100 100 100 100 39 5 5 4 4 8 100 100 100 100 22 81 100 98 79 56 15 5 4 72 91 34 82 78 100 95 68 42 80 96 99 100 100 24 51 62 88 56 26 24 20 9 84 8 80 18 68 68 70
100 100 100 100 100 81 12 5 0 30 100 100 100 100 92 31 91 100 85 38 77 95 90 98 76 88 97 90 77 84 100 100 88 98 96 83 69 20 78 15 49 82 69 37 5 13 22 73 99 67 100 93 100 100
100 100 100 100 100 98 9 2 0 68 100 100 100 100 98 87 72 94 73 80 82 92 19 32 97 97 90 93 76 44 28 87 76 95 80 44 79 53 25 2 14 94 100 65 25 53 5 4 17 95 100 89 96 99
100 100 100 100 100 91 5 0 1 98 100 100 100 98 72 75 39 100 95 85 85 61 60 100 100 100 13 38 16 53 66 87 16 43 91 73 95 57 49 24 90 97 88 97 100 37 3 4 81 100 100 100 99 66
100 100 100 100 92 8 0 0 64 100 100 100 71 62 20 99 96 92 100 96 98 100 96 83 95 89 99 68 75 37 35 99 59 61 87 100 96 10 74 80 28 52 98 89 93 82 70 24 82 56 100 91 100 100
100 93 54 94 4 0 0 57 100 100 100 91 46 87 78 94 100 100 92 78 95 100 100 100 98 99 100 100 99 98 100 80 54 46 79 100 96 46 44 98 100 83 94 98 95 70 60 94 64 6 88 99 85 82
100 100 96 3 0 0 45 94 100 100 59 96 85 41 100 100 100 89 62 100 100 100 95 87 87 98 100 100 93 90 87 85 98 100 100 100 100 100 100 100 100 90 100 100 82 100 83 100 96 69 54 10 81 100
99 20 5 4 1 80 95 100 100 94 81 78 98 97 93 73 76 100 100 100 90 100 100 96 98 95 100 93 96 98 64 84 98 100 97 84 100 100 100 100 100 100 100 98 100 100 100 100 100 100 100 100 100 100
7 5 4 28 99 92 99 76 99 100 100 100 50 58 26 62 88 97 100 76 38 82 61 90 96 100 89 99 91 97 100 100 100 100 99 100 100 100 100 100 100 100 100 100 100 100 100 100 100 100 100 100 100 100
5 4 91 99 100 97 66 95 99 90 98 49 90 96 99 98 100 85 89 92 36 66 97 36 51 100 91 100 100 100 100 100 99 100 100 100 100 100 100 100 100 100 100 100 94 100 100 100 100 100 100 99 100 100
8 5 5 76 30 78 96 52 53 86 100 100 100 100 100 100 100 21 86 61 93 99 48 81 99 100 76 100 100 100 100 100 100 100 100 100 100 100 100 100 100 100 100 100 100 100 100 100 100 100 100 100 100 100
12 6 22 66 100 100 100 84 88 89 76 100 96 90 98 79 72 96 91 90 82 94 88 99 100 100 100 100 100 100 100 100 100 100 100 100 100 100 100 100 100 100 100 100 100 100 100 100 100 100 100 100 100 100
100 100 100 100 92 58 55 11 85 80 89 78 74 56 99 100 100 100 100 100 100 100 100 100 100 100 100 100 100 100 100 100 100 100 100 100 100 100 100 100 100 98 100 100 100 100 100 100 100 100 100 100 100 100
100 100 91 53 11 61 51 91 70 79 93 94 96 100 100 100 100 100 100 100 100 100 100 100 100 100 100 100 100 100 100 100 100 100 100 100 100 100 100 100 100 100 100 99 100 98 100 99 98 100 100 100 100 100
15 51 61 99 78 93 87 92 100 100 100 100 100 100 100 100 100 100 100 100 100 100 100 100 100 100 100 100 100 100 100 100 100 100 100 100 100 100 100 100 100 100 100 100 100 99 94 96 74 54 44 32 6 5
86 86 87 100 86 92 99 100 100 100 100 100 100 100 100 100 100 100 100 100 100 100 100 100 100 100 100 100 100 100 100 100 100 100 100 100 100 98 100 78 25 67 92 31 47 22 48 48 9 5 3 2 4 20
96 100 100 83 99 100 100 100 100 100 100 100 100 100 100 100 100 100 100 100 100 100 100 100 100 100 100 100 100 100 100 100 100 100 100 88 92 92 79 31 6 5 5 10 5 5 5 5 5 4 14 66 40 36
100 100 100 100 100 100 100 100 100 100 100 100 100 100 100 100 100 100 100 100 100 100 100 100 100 86 100 100 100 100 92 99 95 25 6 5 5 5 5 5 5 5 5 5 5 6 12 9 8 11 28 34 30 31
100 100 100 100 100 100 100 99 100 100 99 100 100 100 100 100 100 100 100 100 100 100 100 100 100 98 98 98 92 72 72 63 8 7 5 5 5 5 5 5 4 3 4 5 35 22 14 17 35 34 19 20 8 25
100 100 100 100 100 100 100 100 100 100 100 100 100 100 100 100 100 100 99 99 100 100 100 98 89 85 91 92 94 88 83 58 7 5 5 5 6 5 5 5 5 5 5 5 4 2 29 8 7 11 18 27 27 12
100 100 100 100 100 100 100 100 100 100 100 100 100 100 100 100 100 100 100 100 100 100 100 100 100 100 100 100 100 94 15 6 5 5 7 57 18 16 5 5 5 5 8 7 13 100 85 36 43 20 13 9 4 10
100 100 100 100 100 100 100 100 100 100 100 100 100 100 100 100 100 100 100 100 100 100 100 100 100 100 100 51 75 21 5 5 5 5 38 54 21 9 32 28 15 6 6 5 5 9 7 5 5 5 5 5 5 5
100 100 100 100 100 100 100 100 100 100 100 100 100 100 100 100 100 100 100 100 100 100 100 100 89 81 75 5 5 5 4 4 35 29 6 41 41 0 20 13 5 1 4 5 5 5 4 1 4 5 5 5 5 5

GFSWCAN_prec_cloud_024.txt.gz
Cloud_Cover
5 5 5 5 0 1 0 8 2 0 0 0 0 0 0 0 0 0 0 0 2 5 6 5 3 5 8 52 97 59 100 82 100 100 84 100 100 100 16 5 99 39 5 6 5 5 91 21 7 100 100 100 36 99
42 5 5 5 1 2 0 1 1 0 0 0 0 36 4 0 0 0 1 0 0 2 12 16 3 0 5 5 15 6 43 100 100 100 92 100 84 100 100 100 11 72 98 100 100 78 50 12 28 84 24 64 26 74
69 6 5 5 4 0 1 0 0 1 0 0 0 0 5 0 0 0 0 0 0 0 2 5 5 5 0 4 5 5 5 5 5 16 51 100 100 100 100 100 99 99 44 64 67 42 11 22 24 100 15 5 30 5
5 5 5 5 5 1 5 0 0 0 0 0 0 0 10 5 0 0 0 0 0 1 0 15 1 3 2 0 0 4 4 5 18 65 68 100 79 77 94 100 100 60 80 99 81 70 11 96 41 13 94 100 49 43
5 14 8 5 4 1 5 5 6 0 0 0 0 0 99 43 5 0 0 0 2 2 1 48 2 0 0 0 0 0 2 5 5 5 5 73 24 78 5 76 100 100 75 90 96 14 61 55 100 100 16 12 9 60
5 5 5 5 5 5 4 5 4 0 0 0 0 0 92 100 23 14 24 9 1 0 0 27 61 0 0 0 0 0 0 0 2 5 5 5 5 3 5 5 87 100 91 44 37 33 63 64 100 30 5 58 65 5
1 0 1 5 5 5 3 5 5 5 0 0 0 0 65 100 42 19 66 28 1 0 3 5 64 4 0 0 1 1 0 3 0 0 0 5 100 26 3 16 73 5 9 90 31 78 23 14 95 6 5 62 9 23
5 4 5 5 5 5 5 5 5 5 5 3 0 0 77 100 100 27 9 3 30 0 1 30 79 56 3 5 16 4 11 5 4 5 5 5 14 22 22 6 27 74 92 63 45 5 9 16 11 5 29 84 55 34
97 66 10 6 5 41 39 8 5 5 5 5 0 3 85 100 100 80 5 2 0 15 27 5 53 90 11 38 22 92 69 76 10 5 5 5 43 36 51 16 0 39 57 68 5 4 5 7 31 0 13 28 90 39
100 100 100 100 88 100 100 96 5 5 5 5 2 85 100 100 100 68 45 34 5 4 2 0 25 84 62 92 88 34 76 100 99 86 94 81 7 22 97 42 10 4 5 7 99 5 4 50 62 5 19 13 0 0
100 100 100 100 100 100 100 100 9 5 5 18 90 93 100 100 100 76 18 35 9 10 2 0 43 100 45 98 60 73 48 57 10 12 64 22 63 64 100 74 4 3 0 0 4 2 5 100 46 99 56 76 0 0
100 100 100 100 100 100 100 86 24 30 87 62 82 100 100 100 100 65 14 44 76 100 69 55 94 53 96 24 8 57 75 100 84 89 81 72 19 89 63 51 44 1 0 0 26 40 49 40 4 6 45 39 4 3
100 100 100 100 100 100 100 100 91 8 4 28 98 100 100 100 100 50 5 54 95 69 84 92 66 96 82 32 75 100 71 24 98 86 71 29 41 67 60 23 8 0 0 0 0 4 39 88 27 28 3 74 8 9
100 100 100 100 100 100 100 99 5 3 16 95 100 100 100 100 69 48 100 100 73 91 100 97 60 28 48 51 100 100 94 94 9 39 81 74 88 100 95 81 87 69 30 0 3 5 5 5 81 6 8 3 90 64
100 100 100 100 100 100 100 5 5 12 83 100 100 100 100 74 100 100 35 45 94 67 100 99 55 81 92 96 98 100 99 24 25 98 94 60 83 97 97 96 37 100 100 100 8 2 5 64 43 5 5 5 2 38
100 100 100 100 100 100 98 5 5 32 72 100 100 100 100 100 64 75 69 100 99 99 79 42 94 58 41 71 80 58 61 95 100 100 100 100 73 16 17 20 8 24 69 82 80 54 36 0 51 0 0 1 0 4
100 100 100 100 100 83 5 4 15 38 100 100 100 100 94 97 100 92 100 10 93 84 95 97 91 99 84 81 82 99 57 43 38 83 79 100 100 100 100 100 99 98 96 96 100 100 99 43 21 3 27 97 98 96
100 100 100 96 45 4 1 4 71 100 100 98 100 100 97 100 15 40 33 94 100 100 98 54 49 25 86 54 100 41 41 72 98 100 100 96 100 100 100 100 100 96 97 88 96 59 55 50 96 100 100 100 100 100
74 28 5 2 2 12 17 92 100 100 77 97 68 81 100 80 92 100 91 100 86 45 36 85 29 35 54 77 17 72 63 64 70 96 92 94 100 100 100 100 100 98 100 100 100 100 100 100 100 100 100 100 100 99
3 2 0 10 90 100 100 100 62 100 94 84 99 85 88 96 98 100 97 38 43 78 10 65 78 54 33 54 81 94 100 100 100 98 100 100 100 100 99 100 100 100 100 100 100 100 100 100 100 100 100 99 100 100
1 54 100 67 55 78 76 57 91 92 100 96 99 11 53 97 100 83 97 23 5 28 54 83 99 60 54 75 100 100 100 100 100 100 100 100 100 100 100 100 100 100 100 100 100 100 100 100 100 100 98 100 71 93
23 56 60 10 58 82 95 99 93 76 88 100 64 72 97 82 94 63 8 40 66 98 93 59 64 100 100 100 100 100 100 100 100 100 100 100 100 100 100 100 100 100 100 100 100 100 100 100 100 97 100 100 100 99
6 5 66 98 100 100 100 47 89 84 86 100 71 82 41 53 75 40 96 100 100 88 100 96 100 100 100 100 100 100 100 100 100 100 100 100 100 100 100 100 100 100 100 100 100 100 100 100 100 100 100 100 100 100
100 100 100 97 53 71 82 64 96 65 38 38 66 45 74 99 100 100 100 100 100 100 100 100 100 100 100 100 100 100 100 100 100 100 100 100 100 100 100 98 98 100 100 100 100 100 100 100 100 100 100 100 100 100
37 14 40 99 63 92 61 79 89 100 100 96 100 100 100 100 100 100 100 100 100 100 100 100 100 100 100 100 100 100 100 100 100 100 100 100 100 100 100 100 100 100 100 91 100 68 49 51 70 50 56 38 34 12
80 70 93 100 95 94 100 98 100 100 100 100 100 100 100 100 100 100 100 100 100 100 100 100 100 100 100 100 100 100 100 100 99 96 100 97 100 99 100 88 70 67 81 73 11 13 40 76 7 5 5 4 15 30
92 100 100 100 97 95 100 100 100 100 100 100 100 100 100 100 100 100 100 100 100 100 100 100 100 100 100 100 96 100 100 100 96 100 95 93 100 99 88 32 19 7 97 99 46 15 5 5 5 22 30 47 23 37
100 100 100 99 100 100 100 100 100 100 100 100 100 100 100 100 100 100 100 100 100 100 100 100 100 100 100 100 100 100 99 42 21 16 25 32 18 6 5 5 5 5 5 5 10 27 25 31 27 14 20 20 17 5
100 100 100 100 100 100 100 100 100 100 100 100 100 100 100 100 100 100 100 100 100 100 100 100 100 100 100 100 100 100 99 94 75 69 51 10 5 5 5 5 5 5 5 4 26 0 1 5 63 56 27 14 6 17
100 100 100 100 100 100 100 100 100 100 100 100 100 100 100 100 100 100 100 100 100 98 100 100 100 99 100 98 92 87 85 85 96 59 71 47 65 60 47 30 34 27 6 3 1 0 2 55 87 100 92 48 47 20
86 98 99 100 100 100 100 100 100 100 100 100 100 100 100 100 100 100 100 100 100 100 100 100 100 79 87 92 98 100 100 92 12 5 52 58 55 29 9 7 16 13 16 21 30 79 49 45 77 88 38 15 2 0
100 100 100 95 100 100 100 100 100 100 100 100 100 100 99 88 100 100 99 100 100 100 99 100 100 100 100 100 95 50 25 6 5 5 5 32 5 35 62 54 22 11 7 7 5 14 8 3 16 12 7 5 3 5
100 100 100 100 100 100 100 100 100 100 100 100 100 100 100 99 100 96 100 100 100 100 100 100 100 100 100 100 82 68 5 5 35 28 1 7 0 0 2 2 2 4 5 10 6 6 2 3 4 5 5 5 5 3

GFSWCAN_prec_cloud_030.txt.gz
Cloud_Cover
100 100 100 63 67 18 5 5 1 0 0 0 0 0 0 0 0 2 1 7 43 38 78 100 77 5 100 100 100 100 99 98 100 100 100 100 100 90 26 7 3 4 5 5 5 4 2 0 5 0 99 100 100 60
100 100 100 95 86 45 60 9 5 0 0 0 0 0 0 0 0 0 0 0 5 22 38 27 33 5 21 100 100 5 3 89 100 100 100 100 100 69 4 6 1 0 31 6 3 2 48 12 3 9 100 100 82 99
100 100 100 100 100 100 100 100 19 5 0 0 0 0 0 0 0 0 4 0 0 40 55 27 21 5 5 36 100 98 6 36 100 100 100 99 95 66 9 6 5 0 68 12 5 72 45 83 6 43 100 95 100 100
100 100 100 100 100 100 100 100 31 5 0 0 0 0 0 0 0 0 2 0 0 0 32 72 5 5 5 5 61 100 96 94 100 100 100 99 95 36 5 5 38 13 5 5 17 39 97 76 16 100 100 100 100 100
100 100 100 100 100 100 100 100 74 5 0 0 0 0 0 0 0 0 4 0 0 0 0 12 5 5 5 2 4 78 100 100 100 100 100 100 26 5 5 4 0 2 5 33 40 59 47 79 40 100 100 100 100 100
100 100 100 100 100 100 100 100 86 4 0 0 0 0 0 0 0 0 0 0 3 0 0 0 0 0 5 1 0 0 82 100 100 100 100 100 100 16 5 5 5 0 0 5 21 16 6 69 67 100 100 100 100 100
100 100 100 100 100 100 100 100 62 1 0 0 0 0 0 0 6 1 0 0 16 19 3 0 0 0 0 0 0 0 0 6 86 100 100 100 100 47 6 76 16 5 5 1 5 9 14 6 72 59 100 100 100 100
100 100 100 100 100 100 100 100 11 0 0 0 0 0 0 0 5 61 3 1 74 100 49 0 3 5 5 0 0 0 0 0 0 45 99 100 100 80 80 35 95 14 5 5 5 5 6 53 18 11 97 100 90 100
100 100 100 100 100 100 100 30 0 0 0 0 0 0 1 0 0 0 0 6 100 100 81 4 5 79 4 2 5 4 3 0 0 0 2 11 46 5 70 42 14 95 5 5 1 4 8 81 53 48 37 22 100 100
100 100 100 100 97 50 2 0 0 0 0 0 0 0 0 0 0 0 5 89 100 100 99 5 4 24 24 5 90 29 6 5 5 1 1 0 0 1 4 5 0 0 4 7 5 5 0 0 2 5 5 5 65 98
100 100 100 100 45 5 5 5 3 4 5 5 73 64 6 0 0 0 14 95 100 100 95 19 5 5 10 42 5 100 54 5 4 2 35 16 0 0 0 0 0 0 0 0 0 0 0 0 0 0 0 0 2 5
100 100 100 100 100 100 79 5 5 5 49 32 45 8 5 2 4 4 8 97 100 100 64 7 54 4 8 86 80 98 14 5 3 1 19 11 5 2 1 0 4 4 0 0 0 4 2 0 0 0 0 0 0 4
100 100 100 100 97 100 100 100 98 76 5 55 5 5 7 5 12 5 29 100 100 100 60 5 70 5 97 30 6 5 1 5 9 7 6 20 7 58 90 57 54 10 5 11 49 28 5 5 1 0 0 0 0 0
5 90 100 99 98 74 100 100 100 100 100 83 100 73 5 5 2 10 100 100 100 100 62 9 14 11 5 5 3 1 5 6 92 99 100 99 100 100 100 99 98 95 5 5 5 2 0 0 0 0 0 0 0 0
75 53 98 100 100 100 100 100 100 100 100 100 68 44 10 10 15 86 100 100 100 92 50 5 8 5 5 5 5 16 100 14 100 89 84 100 100 90 40 65 17 5 5 0 0 0 0 0 0 0 0 0 0 0
100 92 100 87 92 99 100 100 100 100 100 86 30 5 85 19 68 100 100 100 100 24 44 49 97 5 8 8 36 100 39 79 94 100 79 29 8 41 48 3 0 0 0 0 0 0 0 0 0 0 0 0 0 0
100 100 90 100 100 100 100 100 100 100 86 22 12 98 30 38 100 100 100 99 10 5 45 74 5 5 7 76 65 12 40 98 100 100 88 84 82 8 4 0 1 4 17 33 100 93 69 94 94 65 2 0 4 5
100 70 96 100 100 100 100 100 100 73 6 7 27 90 30 100 98 45 70 85 28 5 20 5 5 5 5 47 73 82 69 88 100 100 100 100 100 95 100 94 93 63 91 100 90 82 62 14 6 43 90 98 99 61
99 100 100 100 100 100 100 94 24 40 58 26 78 100 100 100 100 45 54 5 33 5 5 5 8 60 27 28 61 67 97 100 100 100 100 100 100 94 84 99 100 100 100 100 99 48 95 94 92 89 99 100 100 100
100 100 100 100 100 100 100 13 14 38 9 69 100 54 51 40 9 17 10 35 16 80 100 100 92 64 23 9 19 96 100 100 100 100 100 100 100 100 100 100 100 100 100 100 100 100 100 100 100 100 100 100 100 100
100 100 100 100 84 6 10 40 5 68 58 84 14 28 22 23 99 59 100 100 100 81 48 5 21 40 70 93 100 100 100 100 100 100 100 100 100 100 100 100 100 100 100 100 100 100 100 100 100 100 100 100 100 100
91 98 83 76 96 41 67 92 95 100 66 20 68 97 85 70 100 99 91 62 16 5 5 6 79 100 100 100 100 100 99 100 100 100 100 100 100 100 100 100 99 100 100 100 100 98 100 100 100 97 100 100 100 100
100 97 88 52 77 40 100 100 80 36 93 86 28 61 100 100 68 38 6 34 5 8 45 100 100 100 100 99 95 100 100 100 100 100 100 100 100 100 100 100 100 98 100 100 100 100 100 90 100 97 94 96 100 100
40 52 68 48 14 21 12 20 6 21 60 67 98 84 58 85 23 62 97 46 100 100 100 100 100 100 100 100 100 100 100 100 100 100 100 100 100 100 100 100 100 100 100 91 76 90 100 82 100 100 100 99 89 100
69 34 44 51 14 36 41 35 52 66 94 54 49 22 62 89 84 99 100 100 100 100 100 100 100 100 100 100 100 100 100 100 100 100 96 99 90 76 25 7 5 5 10 64 96 89 43 5 5 5 5 6 6 5
82 29 21 40 58 76 95 58 62 34 66 69 100 100 99 99 100 100 100 100 100 100 100 100 100 100 100 100 100 98 90 95 93 96 100 78 72 75 60 29 5 7 5 5 5 4 4 5 5 5 42 100 90 16
89 92 78 55 47 59 31 46 98 100 100 100 100 100 100 100 100 100 100 100 100 100 100 100 100 100 100 99 100 100 82 92 98 99 91 59 91 100 98 100 91 42 23 4 0 0 0 2 28 94 90 78 42 70
100 100 56 36 46 63 100 94 100 100 98 100 100 100 100 100 100 100 100 100 100 100 100 100 100 100 97 84 83 99 100 94 68 65 78 38 6 5 5 5 6 13 5 5 5 10 68 100 83 68 82 47 51 91
100 87 100 100 100 100 100 100 100 100 100 99 100 100 100 100 100 100 100 99 96 100 100 100 100 100 100 99 100 100 100 100 83 84 97 100 51 5 5 5 0 0 3 1 5 10 86 46 22 7 0 0 5 94
100 100 100 100 100 100 100 100 100 100 100 100 100 100 100 100 97 82 94 88 95 100 100 100 100 100 94 100 100 100 94 75 24 73 100 67 6 5 5 3 1 2 2 2 3 2 0 1 2 1 2 4 60 94
100 100 100 100 100 100 100 100 100 100 100 100 100 100 100 92 97 92 100 100 100 100 100 100 100 100 100 84 70 80 96 100 100 95 30 60 60 21 5 5 41 21 14 5 47 83 99 45 95 100 100 77 37 5
100 100 100 100 100 100 100 100 100 100 100 99 97 88 99 99 99 98 100 100 100 100 100 100 100 100 100 100 98 100 100 100 100 100 100 66 5 4 5 0 3 21 32 6 5 58 100 78 6 57 10 5 5 5
100 100 100 100 100 100 91 68 74 99 96 100 100 100 100 100 100 100 100 100 100 100 100 100 100 94 82 86 100 100 100 100 67 5 7 5 5 5 13 11 5 5 5 4 5 5 5 4 2 2 1 1 0 0

GFSWCAN_prec_cloud_033.txt.gz
Cloud_Cover
100 100 100 100 100 100 100 100 28 5 5 5 0 0 0 0 0 6 10 0 0 73 100 100 100 100 69 7 78 100 100 100 100 100 100 100 100 100 90 73 100 56 88 5 5 0 4 20 72 6 7 5 100 100
100 100 100 100 100 100 100 100 25 6 6 5 5 0 0 0 0 0 0 0 0 0 93 100 100 100 96 32 22 94 100 100 100 100 50 73 5 6 13 45 7 73 0 0 2 5 0 14 90 68 5 7 100 100
100 100 100 100 100 100 100 100 53 82 5 5 5 0 0 0 0 2 22 12 0 0 0 100 100 100 100 78 65 47 37 96 100 100 38 6 38 100 96 19 5 2 4 0 0 4 4 28 73 20 8 6 100 100
100 100 100 100 100 100 100 100 88 74 5 5 5 1 0 0 0 1 24 2 0 0 0 6 99 100 100 100 100 80 28 72 100 100 100 100 50 100 100 100 15 32 36 4 63 8 5 5 53 39 58 100 100 100
98 100 100 100 100 100 100 100 100 85 14 5 9 5 0 0 0 0 27 4 0 0 0 0 15 100 100 99 93 100 100 89 98 100 100 29 20 60 100 100 74 5 5 5 3 16 100 87 88 100 100 100 100 100
100 100 100 100 100 100 100 100 100 100 98 91 26 5 0 0 0 0 0 0 0 0 0 0 0 16 75 100 99 6 5 24 99 100 100 7 5 5 32 100 100 100 56 5 2 6 80 100 100 100 100 100 100 100
100 100 100 100 100 100 100 100 100 100 100 100 56 5 0 0 13 3 0 0 0 0 0 0 0 0 4 31 38 41 5 5 5 55 74 100 16 5 5 10 92 100 82 5 5 5 93 79 99 92 100 100 100 100
100 100 100 100 100 100 100 100 100 100 100 100 92 5 0 0 10 55 7 0 0 0 0 0 0 0 0 3 32 20 5 5 5 5 30 21 63 11 5 5 5 60 13 5 5 5 5 49 93 88 64 99 100 100
100 100 100 100 100 100 100 100 100 100 100 100 95 0 0 1 0 0 0 0 0 0 0 1 5 2 0 2 4 49 19 5 4 5 5 14 5 5 51 91 6 6 39 60 92 69 5 5 5 13 5 65 100 100
100 100 100 100 100 100 100 100 100 100 100 100 40 0 0 12 0 0 0 0 0 0 3 44 100 85 2 3 0 4 5 22 5 0 1 5 5 5 5 48 25 5 5 5 5 25 20 5 5 4 5 5 22 100
100 100 100 100 100 100 100 100 100 100 100 98 1 53 70 3 0 0 0 0 0 28 42 100 100 100 18 6 5 2 6 5 5 5 4 4 0 4 4 5 44 5 5 5 56 89 18 4 0 0 0 0 0 4
100 100 100 100 100 100 100 100 100 100 90 15 2 4 3 0 3 1 0 0 4 84 100 100 100 100 90 25 50 5 5 5 1 2 4 5 13 0 0 1 0 1 0 0 0 1 1 1 2 4 0 0 0 0
100 100 100 100 100 100 98 99 45 5 16 5 5 4 5 3 13 4 5 1 14 74 100 100 100 100 100 100 69 47 20 1 5 5 11 47 48 0 4 5 49 16 15 1 3 2 5 5 5 5 4 0 0 0
86 84 100 100 100 100 100 100 96 66 48 36 41 48 9 5 4 0 0 5 23 100 100 100 100 100 99 100 100 99 7 0 0 4 22 94 90 41 40 84 98 22 65 18 5 5 5 5 5 0 0 0 0 0
100 75 100 100 97 96 100 100 100 100 89 64 93 74 11 11 23 7 5 25 100 100 100 100 100 91 18 69 7 4 5 5 14 83 98 100 100 98 100 93 42 64 42 5 2 0 0 0 0 0 0 0 0 0
99 84 95 100 100 99 89 100 100 100 100 98 43 81 86 76 48 5 5 92 100 100 100 100 100 81 25 5 5 5 50 7 93 100 73 35 7 13 99 96 84 36 7 12 11 1 7 1 0 0 0 0 0 0
88 100 100 100 100 100 100 100 100 100 100 67 90 100 52 5 5 91 96 100 73 100 100 98 66 28 5 5 5 40 99 67 85 79 5 5 5 5 5 5 5 7 16 13 20 42 66 100 100 75 16 28 5 1
100 97 100 100 87 90 100 100 100 100 100 100 99 19 14 9 44 100 100 99 70 71 12 5 5 5 5 18 15 52 54 5 15 24 13 6 5 5 7 30 22 31 86 99 100 100 39 54 43 30 68 98 100 100
89 73 100 100 100 100 100 100 100 100 100 95 40 73 19 98 99 100 99 90 10 5 5 5 5 5 5 5 5 15 73 87 100 100 100 100 100 99 100 98 100 100 100 100 98 71 100 100 99 100 100 100 100 100
100 100 100 100 100 100 100 100 100 100 46 12 92 21 90 86 65 36 38 5 6 5 5 6 5 1 3 6 14 54 100 100 100 100 100 100 100 100 100 100 100 100 100 100 100 100 100 100 100 100 100 98 100 100
100 100 100 100 100 100 100 100 30 5 9 86 100 100 100 96 100 39 5 5 5 5 36 94 100 100 37 74 100 100 100 100 100 100 100 100 100 100 100 100 100 100 98 100 100 100 98 100 100 100 100 100 100 100
100 100 100 100 99 100 65 5 5 35 73 90 69 44 85 99 51 55 37 55 94 100 79 19 12 93 100 100 100 100 100 100 100 100 100 100 100 100 100 100 89 100 100 100 97 100 100 100 100 100 100 99 100 100
99 98 96 94 83 73 94 75 100 71 54 95 25 18 7 39 72 96 100 68 20 5 33 97 100 100 100 100 100 100 100 100 100 100 100 99 100 100 100 99 100 100 100 100 100 100 93 81 98 100 100 100 100 100
25 52 50 10 61 100 98 96 40 11 24 10 5 40 100 99 64 54 83 74 15 97 100 100 100 100 100 100 100 100 100 100 100 100 97 100 100 100 100 100 100 100 100 72 82 83 100 100 75 76 62 100 100 100
28 28 53 15 9 24 8 5 5 6 8 37 89 72 93 22 85 100 100 100 100 100 100 100 100 100 100 100 100 100 100 100 100 94 97 70 75 24 41 6 5 7 79 98 40 5 5 5 5 2 0 5 5 5
23 5 5 5 5 10 54 5 18 39 50 28 11 14 87 97 98 100 100 100 100 100 100 100 100 100 100 100 100 100 100 99 97 95 84 85 53 39 22 5 5 5 5 2 1 0 0 5 52 80 96 93 12 5
21 49 65 8 5 5 5 8 29 64 84 84 100 100 100 100 100 100 97 100 100 100 100 100 100 100 100 100 100 100 100 100 100 100 100 100 96 71 92 69 11 5 5 0 0 2 5 20 93 100 100 93 5 3
100 96 52 74 10 19 99 100 96 91 100 100 100 100 100 100 100 100 100 100 100 100 100 100 100 100 100 99 100 98 80 61 43 84 100 100 96 22 7 5 5 10 5 5 8 94 96 19 5 82 94 35 1 3
100 84 75 57 93 72 98 99 100 100 90 100 95 100 100 100 100 100 100 100 100 100 100 96 100 100 100 100 100 100 100 100 97 64 57 95 88 6 6 25 5 1 0 5 5 4 5 79 88 78 94 5 0 0
100 99 100 100 100 100 100 100 100 100 100 100 100 100 100 100 100 100 100 100 100 100 100 100 100 100 100 100 100 96 83 74 84 100 98 40 5 16 6 8 5 4 4 5 4 10 5 0 1 17 9 7 3 5
100 100 100 100 100 100 100 100 100 100 100 100 100 100 100 100 99 100 100 100 100 100 99 89 97 89 97 86 89 75 100 100 100 100 100 100 100 70 12 5 5 9 72 14 13 87 100 96 82 100 100 75 5 5
100 100 100 100 100 100 100 100 100 100 100 100 100 100 100 100 100 100 93 100 99 100 98 100 100 88 55 97 100 100 100 84 74 100 100 52 5 5 5 5 6 5 59 94 12 5 5 9 4 5 5 5 5 4
100 100 100 100 100 100 100 100 100 100 100 100 100 99 100 100 100 100 100 100 100 100 100 99 100 83 54 57 75 97 78 89 52 55 69 75 76 27 54 77 46 34 5 6 7 14 5 5 5 4 3 4 1 1

GFSWCAN_prec_cloud_036.txt.gz
Cloud_Cover
77 7 30 79 100 100 100 100 100 100 100 89 27 5 4 3 0 8 0 0 0 0 0 28 100 100 100 100 100 100 100 100 100 100 60 73 24 22 68 67 76 59 82 84 47 61 100 100 65 0 0 100 100 86
70 37 47 92 75 100 100 100 100 100 100 100 54 5 5 5 0 3 0 0 0 0 0 1 100 100 100 100 100 100 100 100 100 100 100 100 99 17 20 52 71 100 100 92 94 100 100 95 15 5 17 100 100 59
100 96 87 100 87 100 100 100 100 100 100 86 37 5 5 5 0 1 8 10 0 0 0 0 90 100 100 100 100 100 100 100 100 100 83 100 47 5 5 5 5 5 5 39 31 100 100 40 48 72 5 5 56 95
100 100 100 100 82 100 100 100 100 100 100 91 5 52 56 5 3 0 0 4 1 2 0 0 4 100 100 100 99 100 100 100 100 100 93 70 26 8 6 14 5 5 31 87 92 73 54 6 5 5 5 0 74 17
100 100 100 100 100 57 100 100 100 100 100 100 42 39 50 5 3 3 24 2 0 0 0 0 0 33 100 100 100 100 100 100 100 91 100 97 78 97 100 9 5 5 67 100 100 94 80 5 22 5 41 5 5 6
100 100 100 100 100 100 100 100 100 100 100 100 96 91 60 5 1 0 0 0 0 0 0 0 0 0 67 100 100 100 100 100 99 100 100 100 100 100 99 92 5 40 100 100 5 34 54 99 94 79 70 99 71 100
100 99 100 100 100 100 100 100 100 100 100 100 100 100 21 5 9 2 0 0 7 0 0 0 0 0 0 69 100 100 100 100 100 100 100 51 48 76 58 27 65 6 100 100 100 34 21 97 90 99 100 100 100 100
100 100 100 100 100 100 99 100 100 100 100 100 100 100 18 5 12 7 1 0 16 0 0 0 0 0 0 0 59 100 100 100 100 100 100 96 51 13 5 24 7 89 93 100 100 99 94 24 53 62 98 100 99 79
100 100 100 100 100 100 100 100 100 100 100 100 100 100 32 14 4 0 0 0 2 0 0 2 0 0 0 0 0 15 100 100 100 100 100 100 40 5 5 56 6 8 88 86 100 100 100 73 52 5 5 12 10 69
100 100 100 100 100 100 100 100 100 100 100 100 100 98 54 21 0 0 0 0 0 0 0 0 0 0 0 0 0 0 1 99 100 100 100 100 68 5 1 5 5 5 5 9 54 73 29 79 99 19 5 5 4 5
100 100 100 100 100 100 100 100 100 100 100 100 100 93 16 10 0 0 0 0 0 0 16 2 0 3 0 4 4 1 5 5 13 82 100 100 100 33 4 0 1 5 3 5 5 5 5 11 13 4 2 2 4 2
100 100 100 100 94 100 100 100 100 100 100 100 100 35 87 6 0 0 0 0 0 0 0 0 2 4 6 5 5 5 2 5 1 4 33 94 100 95 9 5 0 0 3 2 2 5 5 5 5 5 5 5 4 1
100 100 100 100 100 100 100 100 100 100 100 100 77 88 56 4 75 9 3 0 0 0 4 40 95 96 14 67 98 66 5 5 5 5 11 50 39 22 16 5 2 1 0 0 0 0 0 3 5 5 4 0 0 0
100 100 100 100 100 100 100 100 100 100 99 65 99 98 28 6 5 5 1 0 0 5 36 74 82 96 100 100 100 70 7 2 0 2 18 95 100 100 85 21 5 5 15 31 16 5 5 5 5 5 4 2 1 0
100 100 100 100 100 100 100 100 100 96 100 98 85 81 5 5 5 5 3 0 1 58 99 100 100 100 100 100 100 91 28 4 5 8 100 99 100 100 62 11 16 5 5 5 5 4 1 1 0 0 0 0 0 0
100 100 97 100 100 100 100 100 100 100 75 34 32 12 5 5 5 5 5 5 11 100 100 100 100 100 100 91 100 100 100 88 5 6 12 55 26 23 14 7 5 5 6 9 9 5 10 22 19 60 42 0 0 0
100 97 82 100 100 100 100 100 100 100 22 49 9 5 5 6 5 5 5 5 93 100 100 100 100 98 100 100 100 74 26 5 5 29 100 83 59 69 39 11 1 14 26 21 58 99 97 27 99 100 100 95 26 38
59 98 100 98 94 100 100 100 100 100 100 99 99 52 6 5 5 6 28 72 100 100 100 100 100 100 100 55 5 7 5 5 18 6 75 98 53 1 12 91 100 100 99 100 100 100 99 96 99 100 90 100 100 100
100 100 100 100 96 100 97 100 100 100 100 96 50 20 52 5 55 100 95 100 100 32 72 100 100 64 8 3 5 5 5 5 5 34 26 48 62 54 91 100 100 100 100 100 100 99 100 100 100 100 100 100 100 100
100 97 97 99 100 100 95 100 100 100 98 33 82 48 49 40 99 98 94 52 32 100 100 77 6 5 3 0 4 8 11 80 98 100 100 100 100 98 100 100 100 100 100 100 100 99 100 100 100 100 100 100 100 100
87 50 84 100 92 78 70 100 100 87 6 50 88 99 89 16 92 42 16 74 100 28 5 5 6 20 20 35 98 100 100 100 100 100 100 100 100 100 100 100 100 100 100 100 100 100 98 100 100 100 100 100 100 100
74 99 100 100 100 100 100 100 99 94 18 83 100 87 98 100 87 89 81 9 8 36 47 15 10 6 56 100 100 100 100 100 100 100 100 100 100 100 100 100 100 100 100 100 100 100 100 100 100 100 98 74 100 100
100 100 100 100 95 100 94 82 35 5 59 70 62 49 35 91 18 5 40 89 68 75 57 88 100 100 97 99 100 100 100 100 100 100 100 100 91 92 100 100 100 100 100 100 100 100 100 100 100 100 100 100 100 100
100 100 99 78 67 99 70 93 96 77 42 6 15 27 9 25 88 100 100 98 38 92 100 100 100 100 100 100 100 100 100 100 100 100 100 100 100 100 100 100 100 88 33 45 80 62 31 22 33 100 100 100 100 100
6 10 5 63 54 88 51 5 5 6 12 5 6 45 94 100 94 63 65 77 100 100 100 100 100 100 100 100 100 100 100 100 100 100 100 100 100 99 92 36 5 5 37 4 1 2 1 0 0 0 0 2 0 0
17 6 5 5 30 11 5 5 5 5 5 50 88 67 38 34 83 95 100 100 100 100 100 100 100 100 100 100 100 100 100 100 100 100 100 94 42 58 58 19 5 5 3 1 2 4 10 80 76 63 13 1 4 5
46 8 65 6 5 5 5 7 7 28 100 24 52 75 98 94 100 100 100 100 100 100 100 100 100 100 100 100 99 100 100 100 100 98 74 39 45 9 6 5 5 5 5 5 4 5 22 95 100 90 67 50 0 0
93 87 20 33 7 9 93 99 99 93 99 100 97 99 100 100 100 100 100 100 100 100 100 100 100 100 100 99 88 84 86 82 87 89 99 95 89 43 5 5 5 5 5 5 18 52 20 45 43 90 100 43 1 0
100 74 62 61 92 63 100 96 100 100 94 100 100 100 100 100 100 100 100 100 100 100 100 100 100 100 100 100 100 97 100 98 100 76 70 100 96 23 9 5 5 2 0 5 5 5 4 3 5 34 91 5 2 0
100 98 80 100 100 100 98 98 98 100 100 100 100 100 100 100 100 100 100 100 100 100 100 100 100 100 100 100 100 100 100 87 72 97 64 79 65 78 30 5 5 3 5 5 10 49 48 7 26 70 40 16 3 5
100 100 100 100 100 100 100 98 100 100 100 100 100 100 100 100 100 100 100 100 100 100 100 100 97 99 100 99 71 63 60 75 77 69 85 83 95 9 5 4 3 4 5 8 91 31 56 29 26 33 43 20 6 10
100 100 100 100 100 100 100 100 100 100 100 100 100 100 100 100 100 100 94 99 100 100 100 100 94 94 93 82 70 66 16 39 93 63 74 73 5 5 5 5 5 5 5 5 5 5 5 5 5 5 5 5 5 5
100 100 100 100 100 100 100 100 100 100 100 100 100 100 100 100 100 100 100 100 100 100 100 100 100 89 44 28 6 20 42 89 91 64 95 91 77 46 9 5 5 5 5 5 5 5 5 5 5 5 5 5 11 8

GFSWCAN_prec_cloud_042.txt.gz
Cloud_Cover
100 100 100 88 35 93 41 98 37 40 21 0 4 99 100 100 100 100 95 74 78 64 5 5 0 0 0 0 0 0 0 83 100 100 99 100 93 42 100 100 100 100 21 5 100 99 81 63 100 99 98 87 52 83
100 100 100 100 100 100 100 35 25 100 24 9 8 100 100 100 100 100 91 56 12 33 6 5 1 0 0 0 0 4 1 42 100 100 100 100 100 100 100 100 100 100 69 58 53 73 15 5 97 100 60 5 5 5
100 100 100 100 100 100 100 94 25 91 100 99 100 100 100 100 100 100 94 97 6 5 5 5 5 0 0 2 5 0 0 25 100 100 100 100 100 100 100 100 100 100 100 91 19 29 21 48 5 5 15 20 5 5
100 100 100 100 100 100 100 19 71 36 98 92 99 100 100 100 100 100 100 44 9 8 5 0 0 0 0 0 1 61 5 64 100 100 100 100 100 100 96 84 100 94 100 86 100 22 5 55 23 5 5 29 5 79
100 100 100 100 100 100 71 46 13 81 98 93 100 93 100 100 100 100 99 89 24 2 0 0 0 0 0 0 0 9 82 99 100 100 100 100 100 100 98 8 57 100 94 55 96 82 26 81 100 62 5 5 43 87
100 100 100 100 100 100 100 100 5 17 20 16 100 46 100 100 100 100 79 15 5 5 4 0 0 0 0 0 0 0 45 100 100 100 100 100 100 100 100 100 100 100 100 99 100 100 71 58 5 5 10 55 30 31
100 100 100 100 100 100 100 100 99 55 10 5 12 29 100 100 100 100 98 25 5 5 0 0 0 0 0 0 0 0 100 100 100 100 100 100 100 100 100 100 99 100 100 100 100 98 40 14 44 86 98 6 5 15
100 100 100 100 100 100 100 100 72 63 45 33 5 9 99 100 100 100 98 46 16 5 1 1 2 1 0 0 1 0 100 100 100 100 100 100 100 100 100 95 100 100 100 100 100 100 98 97 100 50 38 100 100 91
100 100 100 100 100 100 100 100 100 86 100 78 8 5 88 100 100 100 100 89 37 5 2 2 3 61 0 3 1 0 66 100 100 100 100 100 100 100 95 100 53 100 100 100 100 100 100 100 96 68 94 100 100 100
100 100 100 100 100 100 100 100 100 100 100 100 86 99 100 100 81 99 91 99 100 22 5 0 0 2 2 5 7 5 4 99 100 100 100 100 100 100 100 100 100 93 100 100 100 100 100 100 96 58 92 100 100 100
100 100 100 100 100 100 100 100 100 100 100 100 96 98 100 100 97 100 95 100 88 5 5 0 0 5 0 2 24 8 30 67 95 100 100 100 100 100 100 100 100 100 100 100 93 93 98 47 76 100 100 100 100 100
100 100 100 100 100 100 100 100 100 100 100 100 85 100 100 100 94 92 100 98 7 15 4 0 0 0 2 0 0 34 20 10 17 75 100 100 100 100 100 98 98 92 100 100 100 100 98 90 35 64 87 65 90 100
100 100 100 100 100 100 100 100 100 100 100 100 100 100 100 100 100 100 100 37 7 5 4 4 2 0 0 0 1 1 5 29 13 0 49 100 98 100 95 100 93 46 58 95 100 100 67 34 43 5 7 40 50 62
100 100 100 100 100 100 100 100 100 100 100 100 100 100 100 100 100 100 95 6 42 5 16 26 5 0 2 32 34 96 98 50 26 7 18 64 100 100 89 71 76 73 11 20 32 16 46 54 19 5 5 5 5 5
100 100 100 100 100 90 100 80 76 100 100 100 100 100 100 100 100 86 5 10 6 0 21 13 0 0 1 52 59 100 100 100 64 21 43 36 69 12 68 100 100 100 89 49 8 5 5 5 5 5 2 2 3 4
100 100 100 100 100 100 96 86 61 42 100 100 100 100 100 100 100 10 38 10 5 8 7 2 3 15 74 69 94 100 100 91 86 46 28 64 99 100 99 71 30 75 100 99 99 83 28 5 5 9 8 55 67 90
100 100 100 100 100 100 88 87 71 13 89 100 100 100 100 100 71 15 5 23 5 5 6 8 6 65 78 100 100 100 86 98 100 73 18 9 5 5 5 5 5 49 79 100 100 100 86 95 70 22 29 58 86 98
100 82 100 100 100 100 100 100 41 5 5 75 100 100 100 68 33 42 22 19 6 6 60 85 49 55 98 96 98 100 100 100 99 68 77 5 5 5 9 77 99 98 93 100 98 48 98 56 100 97 80 62 85 98
99 100 100 96 100 100 100 100 100 32 9 37 44 100 91 29 22 26 22 5 5 2 5 8 42 75 74 100 85 100 100 100 86 51 5 3 1 46 100 75 92 100 100 100 90 100 100 99 90 99 100 97 100 87
99 100 70 100 100 100 100 100 100 61 40 48 42 36 90 62 6 9 5 5 5 5 8 20 86 100 100 100 100 98 58 18 2 2 13 42 56 77 53 95 76 86 100 98 71 78 84 95 100 100 100 100 99 95
96 86 61 10 65 100 100 100 100 98 40 20 6 5 27 5 25 46 56 5 5 32 45 65 50 54 41 62 8 22 29 4 0 34 95 100 100 100 100 100 100 87 100 100 93 100 100 100 99 98 96 98 100 98
94 96 79 85 13 50 100 100 100 99 100 100 98 64 22 38 75 26 5 4 6 40 18 44 42 13 4 5 11 10 57 100 100 100 100 100 100 100 100 100 100 100 100 100 84 83 99 100 100 91 100 78 25 13
100 80 58 67 94 100 99 100 100 100 100 100 68 10 32 24 5 1 4 4 5 48 41 6 1 0 5 63 100 100 100 100 100 100 100 100 100 100 100 100 100 100 100 84 73 45 74 100 87 75 92 11 84 46
99 98 93 96 87 100 100 100 100 100 100 28 22 10 6 4 0 3 4 5 6 1 0 8 73 100 100 100 100 100 100 100 100 100 100 100 100 100 100 92 73 96 90 94 92 87 22 61 91 87 20 3 5 5
65 47 43 99 97 97 86 52 46 45 21 6 8 5 5 4 5 31 39 5 11 24 93 100 100 100 100 100 100 100 100 100 100 100 100 100 100 100 98 72 7 5 6 11 22 8 5 39 82 71 63 18 10 7
84 9 81 29 10 42 28 15 5 5 5 5 5 5 5 5 18 74 39 97 100 100 100 100 100 100 100 100 100 100 100 100 100 100 100 95 100 100 100 86 42 6 23 94 91 81 72 66 96 78 98 81 23 29
52 48 23 19 48 15 10 5 5 5 5 5 6 27 83 98 100 100 100 100 100 100 100 100 100 100 100 100 100 100 98 100 100 100 90 75 60 71 98 100 100 34 5 42 68 36 24 57 21 12 28 75 4 5
27 32 53 16 41 7 41 20 19 9 12 40 92 100 99 100 100 100 100 100 100 100 100 100 100 100 100 93 87 86 86 99 100 89 12 22 14 30 18 8 5 11 5 5 12 43 64 52 44 91 28 69 23 15
60 58 17 27 12 5 5 64 100 94 81 90 79 98 96 100 100 100 96 100 100 100 100 100 100 88 85 99 99 100 98 100 86 85 84 100 92 61 8 26 81 10 5 10 34 42 2 6 47 67 53 82 74 58
100 80 90 90 94 80 88 83 100 95 98 100 100 100 100 100 100 100 100 100 100 100 100 100 100 98 100 100 99 98 100 100 96 50 41 49 67 31 22 30 20 14 6 6 69 42 17 10 16 33 37 64 94 89
99 90 100 100 100 90 96 80 91 93 100 100 100 100 100 100 100 100 100 100 100 100 100 100 100 100 100 100 100 100 100 50 45 69 83 44 34 44 40 25 49 61 51 69 66 82 80 78 90 77 100 96 72 98
100 100 100 100 100 100 100 100 100 100 100 100 100 100 100 100 100 100 100 100 100 100 100 100 100 100 100 100 100 67 57 44 44 54 41 41 91 52 30 26 18 11 7 12 41 89 97 46 70 76 95 100 100 74
100 100 100 100 100 100 100 100 100 100 100 100 100 100 100 100 100 100 100 100 100 100 100 100 100 100 95 94 99 82 36 27 11 34 41 37 28 58 93 99 100 92 54 50 35 28 14 46 65 100 100 100 94 87

GFSWCAN_prec_cloud_045.txt.gz
Cloud_Cover
100 100 100 100 97 56 25 43 73 95 78 100 41 3 0 0 2 5 57 83 27 5 9 5 5 5 5 5 6 53 1 5 5 32 100 100 100 100 99 100 100 100 100 67 100 100 79 56 100 71 25 5 5 50
100 100 100 100 100 100 99 100 100 82 16 100 22 8 1 0 5 5 78 100 100 94 86 73 60 65 4 0 0 0 4 16 0 3 98 88 94 72 95 99 100 100 100 100 100 70 100 93 100 54 100 84 100 62
100 100 100 100 100 100 87 100 98 100 92 78 27 23 17 1 15 98 100 100 100 95 99 95 100 100 100 100 34 5 4 5 0 0 0 92 100 100 59 100 57 100 100 100 100 98 89 99 99 100 100 20 37 5
100 100 100 100 100 100 100 100 100 100 100 100 100 7 57 5 96 100 100 100 100 100 100 100 98 88 49 59 6 2 0 3 0 0 2 5 94 100 100 88 82 98 100 100 94 100 100 11 92 6 30 10 5 5
100 100 100 100 100 100 100 100 100 100 100 100 100 95 94 20 100 100 99 73 100 94 99 93 100 88 69 31 5 5 5 1 0 0 86 94 54 100 97 44 100 93 100 100 100 54 89 10 59 66 26 11 5 5
100 100 100 100 100 100 100 100 81 100 99 100 70 100 99 21 67 100 100 100 100 100 100 99 56 20 5 5 4 0 0 4 5 5 1 89 100 100 100 100 90 81 83 100 100 100 100 100 100 77 49 5 5 20
100 100 100 100 100 100 100 100 96 94 81 100 67 73 100 30 9 77 100 100 100 100 72 96 29 5 1 0 0 0 0 0 3 20 26 67 100 100 100 100 81 100 96 100 100 100 100 100 75 84 58 15 19 79
100 100 100 100 100 100 100 100 100 100 93 100 100 53 39 35 14 5 94 100 100 100 17 5 15 3 0 1 2 2 0 0 0 5 23 100 100 100 100 100 100 100 100 100 100 100 100 100 100 91 94 100 96 100
100 100 100 100 100 100 100 100 100 100 79 99 57 89 56 29 8 17 100 100 100 100 44 5 5 99 8 2 98 25 0 3 0 0 18 100 100 100 100 100 100 100 100 100 100 100 100 100 100 94 5 27 66 90
100 100 100 100 100 100 100 100 100 100 100 100 87 95 90 53 45 25 100 100 100 95 7 5 5 74 2 83 98 94 76 5 96 4 81 100 100 100 100 100 100 100 100 100 100 100 100 100 82 100 100 100 79 96
100 100 100 100 100 100 100 100 100 100 100 98 66 65 100 97 8 52 100 100 97 68 8 5 5 34 16 85 67 100 98 95 86 100 89 100 100 100 100 100 100 100 100 100 93 100 100 100 100 100 72 95 100 100
100 100 100 100 100 100 100 100 100 100 100 100 100 100 100 95 21 64 100 100 98 40 5 5 5 5 95 2 52 7 49 39 48 73 97 100 100 100 100 100 100 100 100 100 100 100 100 100 100 100 100 88 99 100
100 100 100 100 100 100 100 100 100 100 100 100 100 100 100 98 77 98 100 100 82 14 5 5 8 6 3 5 80 96 88 91 45 81 96 100 100 100 100 100 100 100 100 100 100 100 100 100 100 100 100 100 100 38
100 100 100 100 100 100 100 100 100 100 100 100 100 99 100 100 100 100 81 56 56 13 7 24 95 5 100 22 65 92 82 100 100 100 100 92 100 100 100 100 100 100 100 100 100 100 100 100 100 94 58 58 41 8
100 100 100 100 100 100 100 100 100 100 100 100 94 77 86 100 100 39 44 27 10 5 59 14 82 91 98 94 99 99 100 94 100 100 100 100 83 100 99 98 100 100 95 96 100 100 100 100 100 100 100 100 45 23
100 100 100 100 100 100 100 100 100 100 100 99 99 100 40 58 93 72 5 11 20 32 37 70 84 98 100 100 96 50 100 97 100 99 100 95 94 68 39 50 43 29 93 70 40 26 58 80 62 57 61 83 100 98
100 100 100 100 100 100 92 51 100 100 100 100 100 100 89 96 99 100 98 100 22 84 81 31 54 38 92 100 100 99 87 90 100 100 100 100 80 60 5 5 5 5 43 99 94 72 27 12 66 82 84 83 65 88
100 100 100 100 100 93 100 58 50 98 100 100 100 100 100 81 100 98 89 89 73 66 21 74 83 39 67 90 99 96 62 100 100 99 97 52 12 5 4 5 99 35 33 41 66 95 72 40 24 40 73 93 66 96
100 100 100 100 100 100 47 23 31 20 6 57 100 100 100 100 92 9 69 74 79 53 85 100 87 91 82 100 100 100 100 100 100 96 99 9 27 28 16 51 98 76 25 48 79 56 38 50 66 42 65 60 91 95
93 100 98 100 100 100 86 11 20 38 96 88 90 96 100 100 63 76 77 26 5 44 76 100 61 61 98 97 100 100 100 100 100 62 85 100 34 12 62 40 48 57 31 96 66 56 56 78 58 49 94 90 97 81
100 23 92 100 100 100 94 44 36 90 94 93 93 68 93 100 63 100 100 80 49 100 100 89 72 43 100 100 84 99 53 6 8 9 5 5 5 68 98 100 99 91 67 62 86 99 100 98 90 100 72 36 49 98
18 33 100 100 100 100 100 100 100 97 85 100 99 81 82 75 64 100 78 26 94 100 92 92 100 100 95 35 57 23 2 6 12 83 100 100 100 100 100 100 100 100 100 100 100 97 41 82 63 100 96 90 100 42
27 100 100 100 100 100 100 100 87 96 95 100 58 7 86 90 79 3 50 64 92 6 13 12 10 5 4 1 9 32 91 100 100 100 100 100 100 100 100 100 100 100 100 100 57 64 71 84 65 86 21 91 96 99
44 100 100 100 100 100 100 100 92 100 96 87 81 55 65 100 22 5 8 38 22 4 2 0 1 5 26 92 100 100 100 100 100 100 100 100 100 100 100 100 95 98 81 53 56 20 41 79 38 43 68 85 80 68
57 48 75 99 100 100 100 100 85 92 98 86 97 63 51 4 9 32 2 4 6 17 13 11 40 100 100 100 100 100 100 100 100 100 100 100 100 89 100 99 89 100 100 99 99 100 89 59 72 69 85 40 47 41
94 86 87 61 72 95 99 100 93 36 54 37 6 18 4 5 9 52 14 87 85 95 94 100 100 100 100 100 100 100 100 100 100 100 100 93 100 100 99 100 100 70 98 38 66 64 87 93 78 94 91 46 11 40
92 96 63 62 85 81 79 47 17 19 5 5 6 45 8 5 11 40 96 99 100 100 100 100 100 100 100 99 100 100 100 100 100 100 100 100 60 100 82 91 86 100 88 46 83 89 98 100 97 79 86 100 74 78
84 91 75 57 91 58 82 64 4 10 16 42 50 86 100 100 100 100 100 100 100 100 100 100 100 100 100 100 100 100 100 98 100 99 83 97 98 88 64 82 53 16 13 35 61 51 98 86 79 62 80 100 72 92
63 67 67 65 76 56 84 90 99 100 100 100 100 100 100 100 100 100 100 100 100 100 98 100 100 98 100 100 100 100 79 88 90 89 100 100 84 100 97 90 53 95 98 61 34 37 6 21 72 62 69 96 98 89
82 98 100 100 100 100 100 100 95 100 100 100 100 97 92 96 100 98 95 94 94 100 94 98 100 100 100 100 100 96 96 100 100 100 100 92 70 47 90 62 99 80 65 82 96 37 5 6 17 6 21 94 87 83
84 100 100 100 100 100 96 100 100 100 100 100 100 100 100 100 100 100 100 100 100 100 100 100 100 100 100 100 100 100 100 100 100 31 41 88 100 83 81 94 65 74 76 99 91 86 95 96 100 100 100 73 78 72
100 100 100 100 100 100 100 100 100 100 100 100 100 100 100 100 100 100 100 100 100 100 100 100 100 100 100 100 100 100 100 97 39 68 72 38 100 56 87 88 97 99 91 96 100 99 100 98 100 93 93 94 71 73
100 100 100 100 100 100 100 100 100 100 100 100 100 100 100 99 100 100 100 100 100 100 100 99 100 100 99 100 87 85 77 55 42 38 6 14 7 5 7 70 78 62 91 88 100 97 97 65 79 98 100 100 100 100

GFSWCAN_prec_cloud_048.txt.gz
Cloud_Cover
100 100 100 100 100 100 100 100 99 100 100 53 5 5 3 0 4 5 5 5 5 0 0 2 6 5 82 11 5 74 100 100 100 70 83 100 100 100 78 99 100 93 100 100 100 100 26 25 100 100 100 100 99 100
100 100 100 100 100 100 100 100 100 62 100 86 33 22 5 6 58 0 0 1 4 5 5 0 0 5 5 5 5 5 5 17 100 98 60 59 85 100 100 100 100 98 84 72 96 5 4 96 100 100 100 100 100 100
100 100 100 100 100 100 100 100 100 100 96 74 100 100 8 62 6 0 0 0 5 5 23 5 4 7 100 100 6 2 5 4 0 4 5 78 57 86 94 12 69 100 100 100 100 100 8 4 92 87 99 100 89 33
100 100 100 100 100 100 100 100 100 100 93 100 91 75 11 20 16 3 0 7 99 98 44 100 95 84 95 100 21 5 2 0 4 0 0 3 89 9 63 20 22 83 98 100 100 100 99 74 100 100 100 72 25 14
100 100 100 100 100 100 100 100 100 100 94 62 86 55 100 100 100 8 0 6 100 100 84 100 100 100 100 100 100 99 100 100 100 91 28 0 5 2 63 60 63 98 32 56 100 100 61 63 8 99 56 70 9 12
100 100 100 100 100 100 100 100 100 100 100 100 100 100 100 100 100 70 0 9 98 100 100 100 100 100 100 100 100 100 100 100 100 57 5 1 48 0 0 78 100 96 100 45 100 100 97 50 29 100 100 100 100 57
100 100 100 100 100 100 100 100 100 100 100 100 100 100 100 100 100 72 10 2 100 100 99 100 100 100 100 100 100 100 100 100 100 83 85 5 0 0 0 7 90 71 95 100 100 100 100 100 5 69 99 31 64 76
100 100 100 100 100 100 100 100 100 100 100 100 99 100 99 28 74 91 5 0 32 97 97 100 100 90 91 70 56 10 8 33 22 5 3 13 2 0 0 1 26 98 55 98 100 100 100 100 43 6 10 6 43 85
100 100 100 100 100 100 100 100 100 100 100 100 67 90 93 94 84 71 20 3 5 96 100 95 96 100 48 23 82 30 5 4 5 4 1 1 8 2 0 4 94 99 100 40 98 100 100 100 52 35 53 86 100 100
100 100 100 100 100 100 100 100 100 100 100 100 100 100 100 34 31 53 39 4 5 94 100 100 99 100 26 40 7 20 27 14 5 6 79 6 5 0 0 36 100 100 100 85 100 100 100 100 93 96 49 100 100 100
100 100 100 100 100 100 100 100 100 100 100 100 100 100 100 97 94 49 76 5 8 99 100 74 73 51 70 22 41 16 1 27 42 62 100 72 32 4 6 100 100 100 100 100 100 100 100 100 99 96 84 98 100 100
100 100 100 100 100 100 100 100 100 100 100 100 100 100 88 100 100 100 97 5 28 100 100 100 64 6 16 11 34 3 0 29 92 100 98 95 36 54 32 100 100 95 92 100 100 100 100 100 100 67 100 100 100 100
100 100 100 100 100 100 100 100 100 100 100 61 100 100 96 100 90 100 99 5 22 98 78 89 7 5 5 5 9 79 4 1 51 100 92 88 100 44 100 100 96 81 7 14 17 80 100 100 100 56 80 100 100 100
100 100 100 100 100 100 100 100 100 100 100 100 100 100 86 99 100 100 99 23 96 99 97 89 58 5 14 77 30 94 78 94 38 100 65 98 100 100 98 100 100 11 95 69 100 96 100 100 100 48 13 22 47 82
100 100 100 100 100 100 100 100 100 100 100 100 100 100 99 72 100 100 98 87 85 100 91 94 96 55 46 71 29 93 48 18 66 78 95 85 98 100 96 100 100 100 100 100 100 100 100 100 100 55 54 49 48 100
100 100 100 100 100 100 100 100 100 100 100 100 100 100 100 72 98 100 36 52 54 56 51 81 76 74 34 88 68 58 96 39 100 61 100 100 100 100 100 100 100 100 100 100 77 22 57 100 100 100 100 100 100 100
100 100 100 100 100 100 100 100 100 100 100 100 100 100 61 98 100 95 90 97 96 82 82 83 45 11 54 9 78 100 91 6 96 100 100 100 100 100 100 100 88 98 77 100 100 100 68 72 90 100 100 99 84 97
100 100 100 100 100 100 100 100 100 100 100 100 100 88 100 100 68 66 100 75 100 35 10 19 86 60 94 99 99 100 100 92 80 100 93 100 91 87 92 82 20 100 86 100 100 84 90 100 100 100 100 100 96 93
100 100 100 100 100 100 100 100 100 100 100 100 100 95 100 100 100 58 34 35 47 52 97 72 45 76 100 69 100 100 100 100 70 100 100 100 13 9 8 33 96 59 62 100 98 68 17 7 20 61 75 78 48 80
100 100 100 100 100 98 100 92 100 100 100 100 100 100 100 100 100 74 78 53 82 68 34 99 94 59 100 100 100 53 90 39 57 70 47 90 96 78 45 11 95 33 19 40 25 54 57 100 86 51 9 20 83 88
100 100 100 100 100 100 64 46 98 100 100 100 100 100 100 100 100 91 91 85 82 60 100 65 100 84 100 93 100 6 45 76 6 7 10 15 18 14 1 69 96 51 84 52 53 31 28 68 77 50 75 93 15 9
90 100 100 100 53 40 96 100 92 64 65 89 100 94 5 35 100 100 49 17 84 88 76 7 17 51 34 9 22 66 20 3 0 0 38 51 25 48 99 96 100 100 99 88 88 68 92 98 94 79 88 5 27 71
100 100 100 100 100 90 44 22 82 97 93 44 42 22 34 78 96 88 83 91 89 13 100 67 4 3 4 3 5 4 8 10 40 96 100 100 100 100 100 100 100 100 100 100 94 52 18 63 100 80 5 30 6 34
100 100 100 100 100 85 94 39 64 100 100 85 66 97 100 100 37 89 98 74 73 7 0 0 1 4 11 2 6 61 95 100 100 100 100 100 100 100 100 100 100 100 71 41 14 15 69 12 10 13 98 65 75 85
99 92 100 100 100 100 100 100 100 100 99 94 90 86 96 19 90 54 2 8 77 86 66 17 9 15 53 100 100 100 100 100 100 100 100 100 100 100 99 100 36 46 86 25 10 9 58 52 7 39 85 50 7 46
87 97 100 100 100 100 100 99 79 99 100 86 84 90 14 82 66 42 32 32 28 11 3 5 82 100 100 100 100 100 100 100 100 100 100 100 94 93 87 87 100 66 92 100 82 97 100 79 21 90 68 23 4 16
100 100 85 86 99 97 99 97 90 81 93 98 98 99 71 19 4 57 49 5 7 43 53 100 100 100 100 100 100 100 100 100 100 100 100 77 96 38 47 71 93 61 95 29 32 21 43 28 15 40 68 78 93 24
63 44 79 91 100 79 70 97 60 76 48 65 61 93 87 95 78 38 83 98 100 99 94 100 100 100 97 90 100 100 100 100 100 100 98 71 96 81 76 67 20 23 50 69 55 44 34 16 17 45 28 50 100 53
93 97 52 86 100 58 80 94 66 66 40 68 78 95 100 100 100 100 100 100 100 100 100 100 100 100 100 100 100 100 100 83 100 97 78 55 61 98 96 59 40 36 13 33 55 46 45 8 5 10 5 22 99 86
45 94 46 71 84 75 96 92 99 98 100 100 100 100 100 100 100 100 100 99 100 100 100 94 99 100 100 100 100 96 90 65 89 100 99 97 82 99 59 71 73 79 99 75 52 24 5 29 5 7 56 84 96 84
51 99 100 100 100 100 100 100 100 100 100 100 100 100 100 100 100 96 81 85 85 100 91 100 100 96 99 100 100 100 100 100 100 100 92 96 82 84 66 86 80 71 76 59 22 56 83 55 91 100 96 90 49 33
100 100 100 100 100 100 100 100 100 100 100 100 100 100 100 100 100 100 100 100 100 100 100 100 100 100 100 100 100 100 100 100 100 100 49 61 33 78 86 20 97 81 56 59 56 46 67 32 83 81 90 80 99 100
100 100 100 100 100 100 100 100 100 100 100 100 100 100 100 100 100 100 100 100 100 100 100 100 100 100 100 100 100 100 98 90 100 100 83 87 100 100 82 99 62 100 98 42 95 79 99 66 60 70 94 98 95 99